Date String (YYYY-MM-DD hh:mm:ss) UTC,Instrument flags,Ambient pressure (hPa),Sample flow (lpm),Bypass flow (lpm),Sample temperature (°C),Ambient temperature (°C),ASC tube jacket temperature (°C),LED temperature (°C),Box temperature (°C),Sample RH (%),Span deviation,Mass concentration (μg/m³),Mass concentration (μg/m³),Mass concentration (μg/m³)
DateTimeUTC,F1_M11,P_M11,Q1_M11,Q2_M11,T1_M11,T2_M11,T3_M11,T4_M11,T5_M11,U1_M11,ZSPAN_M11,X0_M11,X2_M11,X1_M11
2022-06-23 03:00:00,,0828.1,4.99,0.00,29.2,28.0,00.0,38.0,31.2,17.6,0000.0,0024.34,0005.73,0003.80
2022-06-23 03:01:00,,0828.1,5.00,0.00,29.2,28.2,00.0,38.0,31.2,17.5,0000.0,0023.72,0005.72,0003.80
2022-06-23 03:02:00,,0828.1,5.00,0.00,29.3,28.3,00.0,38.0,31.3,17.4,0000.0,0023.30,0005.76,0003.79
2022-06-23 03:03:00,,0828.3,4.99,0.00,29.3,28.4,00.0,38.0,31.3,17.4,0000.0,0022.55,0005.79,0003.79
2022-06-23 03:04:00,,0828.2,5.01,0.00,29.3,28.5,00.0,38.1,31.4,17.3,0000.0,0022.43,0005.71,0003.79
2022-06-23 03:05:00,,0828.1,5.01,0.00,29.4,28.4,00.0,38.1,31.4,17.3,0000.0,0021.64,0005.71,0003.79
2022-06-23 03:06:00,,0828.1,5.00,0.00,29.4,27.8,00.0,38.0,31.2,17.4,0000.0,0021.19,0005.68,0003.78
2022-06-23 03:07:00,,0828.1,5.00,0.00,29.3,27.4,00.0,38.0,31.1,17.6,0000.0,0020.83,0005.64,0003.77
2022-06-23 03:08:00,,0828.1,4.99,0.00,29.2,27.3,00.0,38.0,31.0,17.5,0000.0,0020.84,0005.56,0003.75
2022-06-23 03:09:00,,0828.1,4.99,0.00,29.2,27.3,00.0,38.0,31.0,17.6,0000.0,0019.53,0005.54,0003.74
2022-06-23 03:10:00,,0828.1,5.00,0.00,29.2,27.5,00.0,38.0,31.0,17.6,0000.0,0018.78,0005.53,0003.72
2022-06-23 03:11:00,,0828.1,5.00,0.00,29.2,27.6,00.0,38.0,31.0,17.5,0000.0,0018.62,0005.51,0003.70
2022-06-23 03:12:00,,0828.1,5.01,0.00,29.2,27.7,00.0,38.0,31.1,17.5,0000.0,0018.58,0005.51,0003.69
2022-06-23 03:13:00,,0828.1,5.00,0.00,29.2,27.9,00.0,38.0,31.1,17.4,0000.0,0018.07,0005.47,0003.69
2022-06-23 03:14:00,,0828.1,5.00,0.00,29.2,28.0,00.0,38.0,31.2,17.3,0000.0,0018.11,0005.38,0003.68
2022-06-23 03:15:00,,0828.2,4.99,0.00,29.3,28.2,00.0,38.0,31.2,17.4,0000.0,0017.47,0005.39,0003.67
2022-06-23 03:16:00,,0828.2,5.01,0.00,29.3,28.3,00.0,38.0,31.3,17.3,0000.0,0017.65,0005.45,0003.66
2022-06-23 03:17:00,,0828.2,5.01,0.00,29.3,28.4,00.0,38.1,31.3,17.2,0000.0,0017.82,0005.49,0003.66
2022-06-23 03:18:00,,0828.2,5.00,0.00,29.4,28.5,00.0,38.1,31.4,17.2,0000.0,0018.91,0005.50,0003.66
2022-06-23 03:19:00,,0828.2,4.99,0.00,29.4,28.5,00.0,38.1,31.4,17.3,0000.0,0019.57,0005.53,0003.66
2022-06-23 03:20:00,,0828.2,5.01,0.00,29.4,28.1,00.0,38.1,31.3,17.4,0000.0,0020.02,0005.55,0003.67
2022-06-23 03:21:00,,0828.2,5.01,0.00,29.3,27.5,00.0,38.0,31.1,17.7,0000.0,0019.79,0005.55,0003.68
2022-06-23 03:22:00,,0828.2,5.00,0.00,29.3,27.3,00.0,38.0,31.0,17.7,0000.0,0019.57,0005.54,0003.68
2022-06-23 03:23:00,,0828.2,5.00,0.00,29.2,27.3,00.0,38.0,31.0,18.0,0000.0,0020.49,0005.56,0003.69
2022-06-23 03:24:00,,0828.2,4.99,0.00,29.2,27.4,00.0,38.0,31.0,18.2,0000.0,0020.52,0005.54,0003.69
2022-06-23 03:25:00,,0828.2,5.00,0.00,29.2,27.5,00.0,38.0,31.0,18.0,0000.0,0020.58,0005.58,0003.69
2022-06-23 03:26:00,,0828.2,5.01,0.00,29.2,27.7,00.0,38.0,31.1,17.9,0000.0,0021.03,0005.62,0003.69
2022-06-23 03:27:00,,0828.2,5.00,0.00,29.2,27.8,00.0,38.0,31.1,17.9,0000.0,0020.98,0005.60,0003.69
2022-06-23 03:28:00,,0828.2,5.00,0.00,29.2,28.0,00.0,38.0,31.2,17.8,0000.0,0020.35,0005.61,0003.70
2022-06-23 03:29:00,,0828.3,4.99,0.00,29.3,28.1,00.0,38.0,31.2,17.8,0000.0,0018.79,0005.60,0003.70
2022-06-23 03:30:00,,0828.3,5.01,0.00,29.3,28.2,00.0,38.1,31.3,17.6,0000.0,0018.07,0005.63,0003.72
2022-06-23 03:31:00,,0828.4,4.99,0.00,29.3,28.3,00.0,38.1,31.3,17.5,0000.0,0018.56,0005.64,0003.72
2022-06-23 03:32:00,,0828.3,5.01,0.00,29.4,28.4,00.0,38.1,31.3,17.5,0000.0,0020.21,0005.65,0003.71
2022-06-23 03:33:00,,0828.3,4.99,0.00,29.4,28.5,00.0,38.1,31.4,17.4,0000.0,0021.50,0005.57,0003.70
2022-06-23 03:34:00,,0828.3,5.01,0.00,29.4,28.6,00.0,38.2,31.4,17.4,0000.0,0019.89,0005.47,0003.69
2022-06-23 03:35:00,,0828.3,4.99,0.00,29.5,28.5,00.0,38.2,31.4,17.4,0000.0,0020.66,0005.47,0003.69
2022-06-23 03:36:00,,0828.3,5.00,0.00,29.4,27.7,00.0,38.1,31.2,17.5,0000.0,0021.90,0005.45,0003.69
2022-06-23 03:37:00,,0828.2,5.01,0.00,29.4,27.3,00.0,38.1,31.1,17.4,0000.0,0021.12,0005.38,0003.69
2022-06-23 03:38:00,,0828.3,4.99,0.00,29.3,27.3,00.0,38.1,31.0,17.3,0000.0,0019.92,0005.33,0003.71
2022-06-23 03:39:00,,0828.3,5.01,0.00,29.3,27.4,00.0,38.1,31.0,17.4,0000.0,0019.39,0005.35,0003.72
2022-06-23 03:40:00,,0828.3,5.00,0.00,29.2,27.5,00.0,38.1,31.1,17.4,0000.0,0019.95,0005.42,0003.73
2022-06-23 03:41:00,,0828.3,5.00,0.00,29.2,27.6,00.0,38.1,31.1,17.5,0000.0,0021.25,0005.43,0003.74
2022-06-23 03:42:00,,0828.3,4.99,0.00,29.3,27.8,00.0,38.1,31.1,17.5,0000.0,0021.07,0005.41,0003.75
2022-06-23 03:43:00,,0828.3,5.00,0.00,29.3,27.9,00.0,38.1,31.2,17.5,0000.0,0020.85,0005.40,0003.77
2022-06-23 03:44:00,,0828.3,5.01,0.00,29.3,28.0,00.0,38.1,31.2,17.4,0000.0,0019.79,0005.51,0003.80
2022-06-23 03:45:00,,0828.3,5.00,0.00,29.3,28.2,00.0,38.1,31.3,17.3,0000.0,0019.87,0005.58,0003.82
2022-06-23 03:46:00,,0828.3,4.99,0.00,29.3,28.3,00.0,38.1,31.3,17.2,0000.0,0019.72,0005.61,0003.85
2022-06-23 03:47:00,,0828.3,5.01,0.00,29.4,28.4,00.0,38.1,31.3,17.2,0000.0,0019.09,0005.62,0003.86
2022-06-23 03:48:00,,0828.4,5.00,0.00,29.4,28.4,00.0,38.2,31.4,17.2,0000.0,0020.51,0005.66,0003.86
2022-06-23 03:49:00,,0828.3,5.00,0.00,29.4,28.5,00.0,38.2,31.4,17.2,0000.0,0020.90,0005.67,0003.87
2022-06-23 03:50:00,,0828.4,4.99,0.00,29.5,28.6,00.0,38.2,31.4,17.2,0000.0,0021.14,0005.62,0003.88
2022-06-23 03:51:00,,0828.3,5.00,0.00,29.5,28.1,00.0,38.2,31.3,17.3,0000.0,0020.67,0005.55,0003.88
2022-06-23 03:52:00,,0828.3,5.00,0.00,29.4,27.5,00.0,38.1,31.2,17.2,0000.0,0020.10,0005.58,0003.89
2022-06-23 03:53:00,,0828.3,5.00,0.00,29.3,27.3,00.0,38.1,31.1,17.2,0000.0,0020.67,0005.61,0003.90
2022-06-23 03:54:00,,0828.3,5.00,0.00,29.3,27.3,00.0,38.1,31.0,17.4,0000.0,0020.01,0005.61,0003.91
2022-06-23 03:55:00,,0828.3,5.01,0.00,29.3,27.4,00.0,38.1,31.1,17.7,0000.0,0019.84,0005.64,0003.91
2022-06-23 03:56:00,,0828.3,5.00,0.00,29.2,27.5,00.0,38.1,31.1,17.5,0000.0,0020.49,0005.68,0003.92
2022-06-23 03:57:00,,0828.3,5.01,0.00,29.3,27.7,00.0,38.1,31.1,17.4,0000.0,0020.40,0005.66,0003.93
2022-06-23 03:58:00,,0828.3,4.99,0.00,29.3,27.8,00.0,38.1,31.2,17.3,0000.0,0019.30,0005.62,0003.93
2022-06-23 03:59:00,,0828.3,5.00,0.00,29.3,28.0,00.0,38.1,31.2,17.3,0000.0,0017.85,0005.61,0003.93
